This is the latest recevied weather packets stored in our database for station/object KU9TRY. If no packets are shown the sender has not sent any weather packets the latest 10 day(s).
| Time | Temp. | Humidity | Pressure | Rain* | Wind** | Luminosity | Snow |
|---|---|---|---|---|---|---|---|
| 1778422199 | 20° C | 79% | 1017.4 hPa | 0 mm | - | 624 W/m² | - |
| 1778421894 | 20° C | 78% | 1017.4 hPa | 0 mm | - | 600 W/m² | - |
| 1778421594 | 19.44° C | 81% | 1017.5 hPa | 0 mm | - | 576 W/m² | - |
| 1778421289 | 18.89° C | 83% | 1017.6 hPa | 0 mm | - | 336 W/m² | - |
| 1778420987 | 18.89° C | 82% | 1017.4 hPa | 0 mm | - | 92 W/m² | - |
| 1778420683 | 18.33° C | 86% | 1017.6 hPa | 0 mm | - | 89 W/m² | - |
| 1778420380 | 17.78° C | 84% | 1017.5 hPa | 0 mm | - | 128 W/m² | - |
| 1778420076 | 17.78° C | 86% | 1017.1 hPa | 0 mm | - | 78 W/m² | - |
| 1778419772 | 17.22° C | 87% | 1017.4 hPa | 0 mm | - | 73 W/m² | - |
| 1778419469 | 16.67° C | 88% | 1017.1 hPa | 0 mm | - | 71 W/m² | - |
| 1778419166 | 16.11° C | 88% | 1017.2 hPa | 0 mm | - | 69 W/m² | - |
| 1778418864 | 15.56° C | 89% | 1017.4 hPa | 0 mm | - | 67 W/m² | - |
| 1778418560 | 15.56° C | 91% | 1017.2 hPa | 0 mm | - | 65 W/m² | - |
| 1778418258 | 15° C | 91% | 1017.2 hPa | 0 mm | - | 64 W/m² | - |
| 1778417954 | 14.44° C | 92% | 1017.1 hPa | 0 mm | - | 63 W/m² | - |
| 1778417650 | 13.89° C | 92% | 1017.5 hPa | 0 mm | - | 62 W/m² | - |
| 1778417348 | 13.33° C | 93% | 1017.4 hPa | 0 mm | - | 60 W/m² | - |
| 1778417044 | 12.78° C | 94% | 1017.2 hPa | 0 mm | - | 62 W/m² | - |
| 1778416740 | 12.78° C | 94% | 1017.1 hPa | 0 mm | - | 64 W/m² | - |
| 1778416436 | 12.78° C | 96% | 1017 hPa | 0 mm | - | 60 W/m² | - |
| 1778416132 | 12.22° C | 96% | 1017 hPa | 0 mm | - | 66 W/m² | - |
| 1778415828 | 11.67° C | 96% | 1017 hPa | 0 mm | - | 64 W/m² | - |
| 1778415524 | 11.11° C | 97% | 1017 hPa | 0 mm | - | 60 W/m² | - |
| 1778415222 | 11.11° C | 97% | 1017 hPa | 0 mm | - | 53 W/m² | - |
| 1778414919 | 10.56° C | 98% | 1016.9 hPa | 0 mm | - | 48 W/m² | - |
* Rain latest hour (hover to see other rain measurements)
** Current wind speed in m/s (hover to see current wind gust speed)